Regional Weather Roundup
Issued by NWS

Home | Current Version | Previous Version | Graphics & Text | Print | Product List | Glossary On
Versions: 1 2 3 4 5 6 7 8 9 10 11 12 13 14 15 16 17 18 19 20 21 22 23 24 25 26 27 28 29 30 31 32 33 34 35 36 37 38 39 40 41 42 43 44 45 46 47 48 49 50
795
ASUS44 KLIX 210010
RWRLA
LOUISIANA WEATHER ROUNDUP
NATIONAL WEATHER SERVICE NEW ORLEANS LA
700 PM CDT SAT SEP 20 2014

NOTE: "FAIR" INDICATES FEW OR NO CLOUDS BELOW 12,000 FEET WITH NO
      SIGNIFICANT WEATHER AND/OR OBSTRUCTIONS TO VISIBILITY.
      SKY/WX - SKY CONDITION AND SIGNIFICANT WEATHER.
      TMP - AIR TEMPERATURE.    DP   - DEWPOINT TEMPERATURE.
      RH  - RELATIVE HUMIDITY.  PRES - PRESSURE.
      HX  - HEAT INDEX.         WCI  - WIND CHILL INDEX.

*  THESE STATIONS ARE NOT NWS OR FAA STATIONS AND ARE NOT UNDER
   NWS QUALITY CONTROL.

LAZ040-048-061>063-065-066-069-210100-
SOUTHEAST LOUISIANA

CITY           SKY/WX    TMP DP  RH WIND       PRES   REMARKS
N.O. AUDUBON     N/A     84  70  62 MISG        N/A
6HR MIN TEMP:  84; 6HR MAX TEMP:  89;

N.O. INTL ARPT PTCLDY    83  67  58 E8        29.94R
6HR MIN TEMP:  83; 6HR MAX TEMP:  89;

N.O. LAKEFRONT CLEAR     82  70  66 E13       29.94R
6HR MIN TEMP:  82; 6HR MAX TEMP:  86;

N.O. DOWNTOWN* FAIR      82  66  57 SE6       29.94R
6HR MIN TEMP:  82; 6HR MAX TEMP:  88;

SLIDELL        CLEAR     81  70  69 E3        29.93S
6HR MIN TEMP:  81; 6HR MAX TEMP:  89;

BATON ROUGE    CLEAR     81  70  69 NE3       29.94R
6HR MIN TEMP:  81; 6HR MAX TEMP:  89;

BOOTHVILLE     PTCLDY    81  72  74 E15G21    29.94R
6HR MIN TEMP:  81; 6HR MAX TEMP:  85;

BELLE CHASSE   PTCLDY    81  69  67 E5        29.93R
6HR MIN TEMP:  81; 6HR MAX TEMP:  87;

BOGALUSA*      FAIR      83  68  61 CALM      29.96R
6HR MIN TEMP:  83; 6HR MAX TEMP:  90;

GALLIANO*      NOT AVBL
NEW ROADS*     FAIR      83  69  62 CALM      29.94S
6HR MIN TEMP:  83; 6HR MAX TEMP:  89;

GONZALES*      FAIR      79  77  94 CALM      29.93R
6HR MIN TEMP:  79; 6HR MAX TEMP:  88;

HAMMOND*       PTCLDY    84  68  58 SE3       29.96R
HOUMA*         PTCLDY    81  54  39 E5        29.93S
PORT FOURCHON* PTCLDY    82  72  69 E14G22    29.96R

$$

LAZ041-044-053-054-210100-
SOUTHWEST LOUISIANA

CITY           SKY/WX    TMP DP  RH WIND       PRES   REMARKS
LAKE CHARLES   CLEAR     84  69  60 E6        29.92R
6HR MIN TEMP:  84; 6HR MAX TEMP:  90;

LAFAYETTE      CLEAR     82  71  69 CALM      29.93S
6HR MIN TEMP:  82; 6HR MAX TEMP:  89;

PATTERSON      CLEAR     81  68  65 E5        29.96R
6HR MIN TEMP:  81; 6HR MAX TEMP:  90;

SALT POINT       N/A     84  72  67 VRB3      29.92R
6HR MIN TEMP:  84; 6HR MAX TEMP:  91;

NEW IBERIA     CLEAR     83  66  56 E6        29.93S
6HR MIN TEMP:  83; 6HR MAX TEMP:  90;

CHENAULT AIRPK CLEAR     82  70  65 E3        29.93R

$$

LAZ027-028-210100-
CENTRAL LOUISIANA

CITY           SKY/WX    TMP DP  RH WIND       PRES   REMARKS
FORT POLK      CLEAR     83  66  56 E3        29.94S
6HR MIN TEMP:  83; 6HR MAX TEMP:  89;

ALEXANDRIA INT CLEAR     83  69  62 E3        29.92S
6HR MIN TEMP:  83; 6HR MAX TEMP:  91;

ALEXANDRIA     CLEAR     80  72  76 CALM      29.94S
6HR MIN TEMP:  80; 6HR MAX TEMP:  93;


$$

LAZ001-002-210100-
NORTHWEST LOUISIANA

CITY           SKY/WX    TMP DP  RH WIND       PRES   REMARKS
SHREVEPORT     CLEAR     87  62  43 SE6       29.94R
6HR MIN TEMP:  87; 6HR MAX TEMP:  93;

BARKSDALE AFB  CLEAR     85  65  50 E2        29.94S
6HR MIN TEMP:  85; 6HR MAX TEMP:  93;

DTN SHREVEPORT CLEAR     85  64  49 SE6       29.94S
6HR MIN TEMP:  85; 6HR MAX TEMP:  92;


$$

LAZ014-016-210100-
NORTHEAST LOUISIANA

CITY           SKY/WX    TMP DP  RH WIND       PRES   REMARKS
MONROE         MOCLDY    82  69  64 CALM      29.95S
6HR MIN TEMP:  81; 6HR MAX TEMP:  93;

TALLULAH       CLEAR     83  68  60 NE6       29.95R
6HR MIN TEMP:  83; 6HR MAX TEMP:  92;


$$




USA.gov is the U.S. government's official web portal to all federal, state and local government web resources and services.